Location: Eldred Sherwood Park Lake Dam
(42.9416°N, 93.5655°W)
Time: 11:53:05
(UTC+00:00)

Explorer 11/Cluster Stage 4 - Pass Details

Date: 18 December 2025
Orbit: 463 x 1180 km, 28.8° (Epoch: 13 January)

Event Time Altitude Azimuth Distance (km) Brightness Sun altitude
Rises 00:55:58 0° 245° (WSW) 4,053 11.5 -23.7°
Reaches altitude 10° 00:59:21 10° 234° (SW) 3,075 10.5 -24.3°
Maximum altitude 01:05:30 26° 182° (S) 2,025 8.7 -25.4°
Enters shadow 01:08:23 20° 148° (SSE) 2,239 8.6 -26.0°
